Regional Weather Roundup
Issued by NWS

Home | Current Version | Previous Version | Graphics & Text | Print | Product List | Glossary On
Versions: 1 2 3 4 5 6 7 8 9 10 11 12 13 14 15 16 17 18 19 20 21 22 23 24 25 26 27 28 29 30 31 32 33 34 35 36 37 38 39 40 41 42 43 44 45 46 47 48 49 50
056
ASUS44 KLIX 301205
RWRLA
LOUISIANA WEATHER ROUNDUP
NATIONAL WEATHER SERVICE NEW ORLEANS LA
700 AM CDT SAT AUG 30 2014

NOTE: "FAIR" INDICATES FEW OR NO CLOUDS BELOW 12,000 FEET WITH NO
      SIGNIFICANT WEATHER AND/OR OBSTRUCTIONS TO VISIBILITY.
      SKY/WX - SKY CONDITION AND SIGNIFICANT WEATHER.
      TMP - AIR TEMPERATURE.    DP   - DEWPOINT TEMPERATURE.
      RH  - RELATIVE HUMIDITY.  PRES - PRESSURE.
      HX  - HEAT INDEX.         WCI  - WIND CHILL INDEX.

*  THESE STATIONS ARE NOT NWS OR FAA STATIONS AND ARE NOT UNDER
   NWS QUALITY CONTROL.

LAZ040-048-061>063-065-066-069-301300-
SOUTHEAST LOUISIANA

CITY           SKY/WX    TMP DP  RH WIND       PRES   REMARKS
N.O. AUDUBON     N/A     81  78  92 MISG        N/A
6HR MIN TEMP:  79; 6HR MAX TEMP:  81;

N.O. INTL ARPT MOCLDY    80  76  87 SE8       29.98S
6HR MIN TEMP:  78; 6HR MAX TEMP:  80; 6HR PCP: TRACE;

N.O. LAKEFRONT MOCLDY    79  76  90 SE12      30.00R
6HR MIN TEMP:  79; 6HR MAX TEMP:  80;

N.O. DOWNTOWN* FAIR      81  73  78 SE3       30.00S
6HR MIN TEMP:  79; 6HR MAX TEMP:  81;

SLIDELL        MOCLDY    78  75  90 E3        29.99F
6HR MIN TEMP:  76; 6HR MAX TEMP:  78;

BATON ROUGE    PTCLDY    76  74  93 E5        29.98R
6HR MIN TEMP:  75; 6HR MAX TEMP:  76; 6HR PCP:  0.02;

BOOTHVILLE     PTCLDY    81  78  91 E5        30.01S
6HR MIN TEMP:  78; 6HR MAX TEMP:  81;

BELLE CHASSE   MOCLDY    80  75  84 SE5       29.98S
6HR MIN TEMP:  79; 6HR MAX TEMP:  80;

BOGALUSA*        N/A     76  73  88 CALM      30.03S
6HR MIN TEMP:  75; 6HR MAX TEMP:  78;

GALLIANO*      NOT AVBL
NEW ROADS*     PTSUNNY   76  75  97 E6        29.97R
6HR MIN TEMP:  74; 6HR MAX TEMP:  76;

GONZALES*      FAIR      76  76 100 CALM      29.97R
6HR MIN TEMP:  75; 6HR MAX TEMP:  76; 6HR PCP:  0.01;

HAMMOND*       CLOUDY    77  73  88 CALM      30.01S
HOUMA*         PTCLDY    79  73  83 SE5       29.97S
PORT FOURCHON* PTSUNNY   84  77  79 SE13G18   30.00R

$$

LAZ041-044-053-054-301300-
SOUTHWEST LOUISIANA

CITY           SKY/WX    TMP DP  RH WIND       PRES   REMARKS
LAKE CHARLES   HVY RAIN  76  75  97 S10G18    29.92R VSB 1/2
6HR MIN TEMP:  74; 6HR MAX TEMP:  77; 6HR PCP:  3.45;

LAFAYETTE      CLOUDY    77  75  93 E7        29.94R
6HR MIN TEMP:  75; 6HR MAX TEMP:  77; 6HR PCP: TRACE;

PATTERSON        N/A     77  75  94 E6        29.98R
6HR MIN TEMP:  73; 6HR MAX TEMP:  77;

SALT POINT       N/A     82  79  90 E5        29.94R
6HR MIN TEMP:  78; 6HR MAX TEMP:  82;

NEW IBERIA     HVY RAIN  78  76  93 S9        29.97R FOG
6HR MIN TEMP:  76; 6HR MAX TEMP:  78; 6HR PCP:  0.09;

CHENAULT AIRPK RAIN      75  73  94 CALM      29.93R

$$

LAZ027-028-301300-
CENTRAL LOUISIANA

CITY           SKY/WX    TMP DP  RH WIND       PRES   REMARKS
FORT POLK      HVY RAIN  72  72 100 CALM      29.96S
6HR MIN TEMP:  72; 6HR MAX TEMP:  75; 6HR PCP:  1.14;

ALEXANDRIA INT LGT RAIN  75  73  93 NE3       29.95R
6HR MIN TEMP:  75; 6HR MAX TEMP:  76; 6HR PCP:  0.27;

ALEXANDRIA     LGT RAIN  75  73  93 CALM      29.96S
6HR MIN TEMP:  75; 6HR MAX TEMP:  77; 6HR PCP:  0.01;


$$

LAZ001-002-301300-
NORTHWEST LOUISIANA

CITY           SKY/WX    TMP DP  RH WIND       PRES   REMARKS
SHREVEPORT     CLOUDY    76  73  91 SE5       29.96S
6HR MIN TEMP:  75; 6HR MAX TEMP:  77;

BARKSDALE AFB  CLOUDY    74  72  93 E2        29.97S
6HR MIN TEMP:  74; 6HR MAX TEMP:  76;

DTN SHREVEPORT CLOUDY    75  72  90 SE6       29.97R
6HR MIN TEMP:  75; 6HR MAX TEMP:  77;


$$

LAZ014-016-301300-
NORTHEAST LOUISIANA

CITY           SKY/WX    TMP DP  RH WIND       PRES   REMARKS
MONROE         CLOUDY    75  74  96 CALM      29.99F
6HR MIN TEMP:  75; 6HR MAX TEMP:  79; 6HR PCP:  0.18;

TALLULAH       CLOUDY    76  73  91 SE3       30.01S
6HR MIN TEMP:  75; 6HR MAX TEMP:  79; 6HR PCP:  0.01;


$$




USA.gov is the U.S. government's official web portal to all federal, state and local government web resources and services.